TAM4510 SBEG-SBFZ

Flight info

Callsign TAM4510
Flight time 3h 5m
Altitude 35000
Route XOLOK DCT PUDVO UZ12 ESDAB DCT FLZ
Aircraft A320/M-SDE3FGHIRWY/LB1

Departure

Time 2026-05-04 20:10
Airport Eduardo Gomes International Airport (SBEG)

Arrival

Time 2026-05-04 23:16
Airport Pinto Martins International Airport (SBFZ)
Time Latitude Longitude Altitude Speed Heading
2026-05-04 19:39 -3.03268 -60.04540 270 ft 0 kts 353°
2026-05-04 20:02 -3.03280 -60.04538 270 ft 4 kts 354°
2026-05-04 20:03 -3.03307 -60.04537 270 ft 4 kts
2026-05-04 20:03 -3.03342 -60.04543 270 ft 4 kts 33°
2026-05-04 20:03 -3.03354 -60.04557 270 ft 1 kts 85°
2026-05-04 20:03 -3.03354 -60.04561 270 ft 0 kts 85°
2026-05-04 20:05 -3.03353 -60.04553 270 ft 6 kts 85°
2026-05-04 20:06 -3.03350 -60.04482 270 ft 11 kts 80°
2026-05-04 20:06 -3.03339 -60.04414 270 ft 9 kts 110°
2026-05-04 20:06 -3.03383 -60.04385 270 ft 7 kts 156°
2026-05-04 20:06 -3.03421 -60.04369 270 ft 6 kts 157°
2026-05-04 20:07 -3.03460 -60.04351 270 ft 7 kts 148°
2026-05-04 20:07 -3.03509 -60.04314 270 ft 14 kts 141°
2026-05-04 20:07 -3.03583 -60.04208 270 ft 22 kts 110°
2026-05-04 20:07 -3.03626 -60.04059 270 ft 23 kts 105°
2026-05-04 20:08 -3.03670 -60.03906 270 ft 23 kts 107°
2026-05-04 20:08 -3.03699 -60.03812 270 ft 12 kts 124°
2026-05-04 20:08 -3.03739 -60.03779 270 ft 4 kts 151°
2026-05-04 20:08 -3.03759 -60.03771 270 ft 2 kts 161°
2026-05-04 20:09 -3.03769 -60.03768 270 ft 1 kts 166°
2026-05-04 20:09 -3.03802 -60.03765 270 ft 9 kts 178°
2026-05-04 20:09 -3.03858 -60.03812 269 ft 15 kts 256°
2026-05-04 20:09 -3.03863 -60.03964 270 ft 41 kts 270°
2026-05-04 20:10 -3.03862 -60.04491 272 ft 107 kts 270°
2026-05-04 20:10 -3.03859 -60.05418 271 ft 157 kts 270°
2026-05-04 20:10 -3.03854 -60.06576 700 ft 166 kts 271°
2026-05-04 20:10 -3.03850 -60.07719 1357 ft 163 kts 271°
2026-05-04 20:11 -3.03845 -60.08843 1851 ft 165 kts 271°
2026-05-04 20:11 -3.03786 -60.10035 2181 ft 180 kts 284°
2026-05-04 20:11 -3.03271 -60.11203 2626 ft 189 kts 310°
2026-05-04 20:11 -3.02233 -60.12049 3309 ft 200 kts 336°
2026-05-04 20:12 -3.00870 -60.12478 4009 ft 213 kts 358°
2026-05-04 20:12 -2.99362 -60.12389 4713 ft 223 kts 11°
2026-05-04 20:12 -2.97748 -60.12087 5232 ft 249 kts 12°
2026-05-04 20:12 -2.95977 -60.11737 6084 ft 266 kts 15°
2026-05-04 20:13 -2.94282 -60.10962 6811 ft 274 kts 40°
2026-05-04 20:13 -2.93101 -60.09479 7610 ft 276 kts 66°
2026-05-04 20:13 -2.92662 -60.07603 8399 ft 281 kts 84°
2026-05-04 20:13 -2.92501 -60.05636 9195 ft 285 kts 84°
2026-05-04 20:14 -2.92341 -60.03654 9878 ft 287 kts 84°
2026-05-04 20:14 -2.92178 -60.01620 10182 ft 303 kts 84°
2026-05-04 20:14 -2.92003 -59.99470 10307 ft 324 kts 84°
2026-05-04 20:14 -2.91814 -59.97182 10675 ft 334 kts 84°
2026-05-04 20:15 -2.91620 -59.94854 11209 ft 338 kts 84°
2026-05-04 20:15 -2.91424 -59.92495 11834 ft 341 kts 84°
2026-05-04 20:15 -2.91226 -59.90119 12567 ft 346 kts 84°
2026-05-04 20:15 -2.91023 -59.87703 13353 ft 350 kts 84°
2026-05-04 20:16 -2.90814 -59.85257 13998 ft 357 kts 84°
2026-05-04 20:16 -2.90603 -59.82768 14727 ft 360 kts 84°
2026-05-04 20:16 -2.90393 -59.80266 15306 ft 362 kts 84°
2026-05-04 20:16 -2.90185 -59.77745 15781 ft 365 kts 84°
2026-05-04 20:17 -2.89976 -59.75209 16255 ft 367 kts 84°
2026-05-04 20:17 -2.89764 -59.72650 16727 ft 370 kts 84°
2026-05-04 20:17 -2.89550 -59.70076 17196 ft 373 kts 84°
2026-05-04 20:17 -2.89336 -59.67482 17657 ft 375 kts 84°
2026-05-04 20:18 -2.89123 -59.64907 18141 ft 378 kts 84°
2026-05-04 20:18 -2.88905 -59.62281 18549 ft 380 kts 84°
2026-05-04 20:18 -2.88683 -59.59641 18940 ft 382 kts 84°
2026-05-04 20:18 -2.88460 -59.56982 19310 ft 385 kts 84°
2026-05-04 20:19 -2.88235 -59.54302 19692 ft 388 kts 84°
2026-05-04 20:19 -2.88009 -59.51605 20063 ft 390 kts 84°
2026-05-04 20:19 -2.87782 -59.48898 20430 ft 392 kts 84°
2026-05-04 20:19 -2.87553 -59.46168 20788 ft 395 kts 84°
2026-05-04 20:20 -2.87322 -59.43424 21157 ft 397 kts 85°
2026-05-04 20:20 -2.87092 -59.40671 21507 ft 399 kts 85°
2026-05-04 20:20 -2.86860 -59.37899 21859 ft 401 kts 85°
2026-05-04 20:20 -2.86625 -59.35115 22215 ft 403 kts 85°
2026-05-04 20:21 -2.86388 -59.32311 22552 ft 406 kts 85°
2026-05-04 20:21 -2.86151 -59.29494 22913 ft 407 kts 85°
2026-05-04 20:21 -2.85679 -59.23826 23575 ft 411 kts 85°
2026-05-04 20:22 -2.85443 -59.20974 23845 ft 412 kts 85°
2026-05-04 20:22 -2.85205 -59.18108 24114 ft 414 kts 85°
2026-05-04 20:22 -2.84963 -59.15230 24383 ft 416 kts 85°
2026-05-04 20:22 -2.84717 -59.12343 24659 ft 418 kts 85°
2026-05-04 20:23 -2.84472 -59.09479 24909 ft 420 kts 85°
2026-05-04 20:23 -2.84225 -59.06559 25174 ft 422 kts 85°
2026-05-04 20:23 -2.83979 -59.03628 25438 ft 423 kts 85°
2026-05-04 20:23 -2.83732 -59.00689 25728 ft 424 kts 85°
2026-05-04 20:24 -2.83484 -58.97738 26007 ft 425 kts 85°
2026-05-04 20:24 -2.83236 -58.94784 26265 ft 427 kts 85°
2026-05-04 20:24 -2.82988 -58.91806 26509 ft 429 kts 85°
2026-05-04 20:24 -2.82741 -58.88837 26749 ft 431 kts 85°
2026-05-04 20:25 -2.82488 -58.85846 26984 ft 432 kts 85°
2026-05-04 20:25 -2.82233 -58.82843 27216 ft 434 kts 85°
2026-05-04 20:25 -2.81979 -58.79861 27443 ft 436 kts 85°
2026-05-04 20:25 -2.81721 -58.76833 27679 ft 438 kts 86°
2026-05-04 20:26 -2.81466 -58.73794 27909 ft 439 kts 86°
2026-05-04 20:26 -2.81209 -58.70742 28142 ft 441 kts 86°
2026-05-04 20:26 -2.80948 -58.67679 28371 ft 443 kts 86°
2026-05-04 20:26 -2.80688 -58.64603 28593 ft 445 kts 86°
2026-05-04 20:27 -2.80431 -58.61517 28813 ft 446 kts 86°
2026-05-04 20:27 -2.80171 -58.58415 29033 ft 448 kts 86°
2026-05-04 20:27 -2.79907 -58.55302 29239 ft 450 kts 86°
2026-05-04 20:27 -2.79641 -58.52176 29453 ft 452 kts 86°
2026-05-04 20:28 -2.79372 -58.49041 29661 ft 453 kts 86°
2026-05-04 20:28 -2.79105 -58.45898 29867 ft 454 kts 85°
2026-05-04 20:28 -2.78838 -58.42746 30066 ft 455 kts 86°
2026-05-04 20:28 -2.78572 -58.39583 30240 ft 457 kts 86°
2026-05-04 20:29 -2.78304 -58.36416 30443 ft 457 kts 85°
2026-05-04 20:29 -2.78035 -58.33253 30712 ft 456 kts 86°
2026-05-04 20:29 -2.77770 -58.30098 30946 ft 455 kts 86°
2026-05-04 20:29 -2.77506 -58.26947 31184 ft 455 kts 86°
2026-05-04 20:30 -2.77240 -58.23798 31436 ft 454 kts 86°
2026-05-04 20:30 -2.76972 -58.20689 31666 ft 454 kts 86°
2026-05-04 20:30 -2.76705 -58.17552 31905 ft 453 kts 86°
2026-05-04 20:30 -2.76437 -58.14409 32143 ft 453 kts 86°
2026-05-04 20:31 -2.76168 -58.11271 32379 ft 453 kts 86°
2026-05-04 20:31 -2.75900 -58.08133 32612 ft 453 kts 86°
2026-05-04 20:31 -2.75633 -58.04996 32846 ft 453 kts 86°
2026-05-04 20:31 -2.75367 -58.01855 33085 ft 452 kts 86°
2026-05-04 20:32 -2.75100 -57.98720 33326 ft 452 kts 86°
2026-05-04 20:32 -2.74831 -57.95591 33569 ft 452 kts 86°
2026-05-04 20:32 -2.74565 -57.92454 33807 ft 452 kts 86°
2026-05-04 20:32 -2.74300 -57.89317 33959 ft 453 kts 86°
2026-05-04 20:33 -2.74035 -57.86174 34117 ft 454 kts 86°
2026-05-04 20:33 -2.73770 -57.83029 34314 ft 453 kts 86°
2026-05-04 20:33 -2.73505 -57.79932 34516 ft 453 kts 86°
2026-05-04 20:33 -2.73235 -57.76798 34723 ft 452 kts 86°
2026-05-04 20:34 -2.72963 -57.73663 34874 ft 452 kts 86°
2026-05-04 20:34 -2.72694 -57.70546 34919 ft 449 kts 86°
2026-05-04 20:34 -2.72166 -57.64346 34920 ft 446 kts 86°
2026-05-04 20:35 -2.71648 -57.58166 34921 ft 446 kts 86°
2026-05-04 20:35 -2.71115 -57.51942 34919 ft 450 kts 86°
2026-05-04 20:36 -2.70574 -57.45691 34921 ft 451 kts 86°
2026-05-04 20:36 -2.70037 -57.39438 34926 ft 452 kts 86°
2026-05-04 20:37 -2.69506 -57.33175 34931 ft 451 kts 86°
2026-05-04 20:37 -2.68975 -57.26921 34938 ft 451 kts 86°
2026-05-04 20:38 -2.68444 -57.20721 34942 ft 451 kts 86°
2026-05-04 20:38 -2.67901 -57.14479 34940 ft 450 kts 86°
2026-05-04 20:39 -2.67364 -57.08231 34942 ft 450 kts 86°
2026-05-04 20:39 -2.66834 -57.01990 34937 ft 450 kts 86°
2026-05-04 20:40 -2.66299 -56.95753 34938 ft 450 kts 86°
2026-05-04 20:40 -2.65759 -56.89515 34936 ft 450 kts 86°
2026-05-04 20:41 -2.65223 -56.83282 34933 ft 450 kts 86°
2026-05-04 20:41 -2.64694 -56.77086 34941 ft 450 kts 86°
2026-05-04 20:42 -2.64160 -56.70851 34941 ft 450 kts 86°
2026-05-04 20:42 -2.63620 -56.64610 34941 ft 450 kts 86°
2026-05-04 20:43 -2.63076 -56.58371 34938 ft 450 kts 86°
2026-05-04 20:43 -2.62534 -56.52139 34943 ft 450 kts 86°
2026-05-04 20:44 -2.61994 -56.45897 34942 ft 450 kts 86°
2026-05-04 20:44 -2.62191 -56.39675 34939 ft 448 kts 101°
2026-05-04 20:45 -2.63217 -56.33534 34941 ft 448 kts 100°
2026-05-04 20:45 -2.64230 -56.27425 34942 ft 448 kts 100°
2026-05-04 20:46 -2.65241 -56.21264 34941 ft 449 kts 100°
2026-05-04 20:46 -2.66257 -56.15102 34940 ft 449 kts 100°
2026-05-04 20:47 -2.67274 -56.08942 34942 ft 449 kts 100°
2026-05-04 20:47 -2.68290 -56.02773 34934 ft 449 kts 100°
2026-05-04 20:48 -2.69301 -55.96608 34942 ft 449 kts 100°
2026-05-04 20:48 -2.70317 -55.90438 34945 ft 449 kts 100°
2026-05-04 20:49 -2.71333 -55.84268 34937 ft 449 kts 100°
2026-05-04 20:49 -2.72347 -55.78103 34938 ft 449 kts 100°
2026-05-04 20:50 -2.73363 -55.71935 34937 ft 449 kts 100°
2026-05-04 20:50 -2.74377 -55.65798 34942 ft 449 kts 100°
2026-05-04 20:51 -2.75388 -55.59629 34942 ft 449 kts 100°
2026-05-04 20:51 -2.76402 -55.53462 34937 ft 449 kts 100°
2026-05-04 20:52 -2.77419 -55.47290 34933 ft 449 kts 101°
2026-05-04 20:52 -2.78437 -55.41123 34941 ft 449 kts 100°
2026-05-04 20:53 -2.79446 -55.34953 34939 ft 449 kts 100°
2026-05-04 20:53 -2.80453 -55.28787 34939 ft 449 kts 100°
2026-05-04 20:54 -2.81296 -55.23663 34928 ft 449 kts 100°
2026-05-04 20:54 -2.82309 -55.17493 34930 ft 449 kts 100°
2026-05-04 20:55 -2.83481 -55.10324 34934 ft 449 kts 100°
2026-05-04 20:55 -2.84496 -55.04152 34938 ft 449 kts 100°
2026-05-04 20:56 -2.85510 -54.97986 34927 ft 449 kts 100°
2026-05-04 20:56 -2.86358 -54.92823 34933 ft 449 kts 100°
2026-05-04 20:57 -2.87357 -54.86694 34931 ft 449 kts 100°
2026-05-04 20:57 -2.88367 -54.80526 34934 ft 449 kts 100°
2026-05-04 20:58 -2.89381 -54.74359 34936 ft 449 kts 100°
2026-05-04 20:58 -2.90391 -54.68188 34932 ft 449 kts 100°
2026-05-04 20:59 -2.91394 -54.62017 34936 ft 450 kts 100°
2026-05-04 20:59 -2.92397 -54.55837 34930 ft 450 kts 100°
2026-05-04 21:00 -2.93403 -54.49662 34937 ft 449 kts 100°
2026-05-04 21:00 -2.94419 -54.43492 34934 ft 450 kts 100°
2026-05-04 21:01 -2.95433 -54.37322 34930 ft 450 kts 100°
2026-05-04 21:01 -2.96437 -54.31146 34940 ft 450 kts 100°
2026-05-04 21:02 -2.97439 -54.24972 34937 ft 450 kts 100°
2026-05-04 21:02 -2.98441 -54.18837 34936 ft 449 kts 100°
2026-05-04 21:03 -2.99452 -54.12629 34945 ft 449 kts 100°
2026-05-04 21:03 -3.00451 -54.06499 34944 ft 449 kts 100°
2026-05-04 21:04 -3.01457 -54.00335 34943 ft 449 kts 100°
2026-05-04 21:04 -3.02462 -53.94175 34953 ft 448 kts 99°
2026-05-04 21:05 -3.03466 -53.88021 34945 ft 448 kts 99°
2026-05-04 21:05 -3.04465 -53.81871 34950 ft 448 kts 100°
2026-05-04 21:06 -3.05466 -53.75717 34939 ft 448 kts 100°
2026-05-04 21:06 -3.06469 -53.69573 34944 ft 447 kts 100°
2026-05-04 21:07 -3.07465 -53.63431 34950 ft 447 kts 99°
2026-05-04 21:07 -3.08462 -53.57287 34946 ft 447 kts 99°
2026-05-04 21:08 -3.09462 -53.51148 34947 ft 447 kts 99°
2026-05-04 21:08 -3.10464 -53.45004 34943 ft 447 kts 100°
2026-05-04 21:09 -3.11465 -53.38861 34949 ft 447 kts 99°
2026-05-04 21:09 -3.12452 -53.32757 34946 ft 447 kts 99°
2026-05-04 21:10 -3.13446 -53.26618 34949 ft 447 kts 99°
2026-05-04 21:10 -3.14441 -53.20473 34947 ft 447 kts 100°
2026-05-04 21:11 -3.15439 -53.14323 34944 ft 447 kts 100°
2026-05-04 21:11 -3.16432 -53.08182 34944 ft 447 kts 100°
2026-05-04 21:12 -3.17426 -53.02041 34941 ft 447 kts 100°
2026-05-04 21:12 -3.18424 -52.95897 34936 ft 447 kts 100°
2026-05-04 21:13 -3.19412 -52.89747 34943 ft 447 kts 100°
2026-05-04 21:13 -3.20403 -52.83606 34944 ft 447 kts 100°
2026-05-04 21:14 -3.21402 -52.77462 34946 ft 447 kts 100°
2026-05-04 21:14 -3.22393 -52.71317 34948 ft 447 kts 100°
2026-05-04 21:15 -3.23385 -52.65180 34942 ft 447 kts 100°
2026-05-04 21:15 -3.24369 -52.59078 34940 ft 447 kts 99°
2026-05-04 21:16 -3.25366 -52.52943 34945 ft 447 kts 100°
2026-05-04 21:16 -3.26357 -52.46812 34930 ft 446 kts 99°
2026-05-04 21:17 -3.27346 -52.40683 34918 ft 446 kts 100°
2026-05-04 21:17 -3.28335 -52.34560 34910 ft 446 kts 100°
2026-05-04 21:18 -3.29321 -52.28437 34897 ft 445 kts 100°
2026-05-04 21:18 -3.30306 -52.22314 34900 ft 446 kts 99°
2026-05-04 21:19 -3.31292 -52.16191 34906 ft 446 kts 99°
2026-05-04 21:19 -3.32276 -52.10068 34907 ft 446 kts 99°
2026-05-04 21:20 -3.33269 -52.03942 34917 ft 446 kts 99°
2026-05-04 21:20 -3.34248 -51.97855 34927 ft 446 kts 99°
2026-05-04 21:21 -3.35232 -51.91723 34940 ft 446 kts 99°
2026-05-04 21:21 -3.36217 -51.85595 34939 ft 446 kts 99°
2026-05-04 21:22 -3.37018 -51.79448 34937 ft 446 kts 92°
2026-05-04 21:22 -3.37237 -51.73237 34934 ft 446 kts 92°
2026-05-04 21:23 -3.37471 -51.67029 34937 ft 447 kts 93°
2026-05-04 21:23 -3.37711 -51.60817 34931 ft 447 kts 92°
2026-05-04 21:24 -3.37945 -51.54603 34930 ft 447 kts 93°
2026-05-04 21:24 -3.38173 -51.48385 34941 ft 447 kts 93°
2026-05-04 21:25 -3.38403 -51.42163 34939 ft 447 kts 92°
2026-05-04 21:25 -3.38632 -51.35950 34939 ft 447 kts 93°
2026-05-04 21:26 -3.38865 -51.29733 34940 ft 447 kts 93°
2026-05-04 21:26 -3.39097 -51.23557 34928 ft 447 kts 93°
2026-05-04 21:27 -3.39328 -51.17340 34931 ft 447 kts 93°
2026-05-04 21:27 -3.39556 -51.11116 34937 ft 447 kts 93°
2026-05-04 21:28 -3.39782 -51.04896 34938 ft 447 kts 93°
2026-05-04 21:28 -3.40013 -50.98665 34939 ft 447 kts 93°
2026-05-04 21:29 -3.40248 -50.92443 34937 ft 447 kts 93°
2026-05-04 21:29 -3.40478 -50.86219 34936 ft 447 kts 93°
2026-05-04 21:30 -3.40704 -50.79988 34939 ft 448 kts 93°
2026-05-04 21:30 -3.40936 -50.73767 34939 ft 448 kts 93°
2026-05-04 21:31 -3.41284 -50.64424 34940 ft 448 kts 93°
2026-05-04 21:32 -3.41498 -50.58233 34934 ft 448 kts 93°
2026-05-04 21:32 -3.41718 -50.51999 34935 ft 448 kts 93°
2026-05-04 21:33 -3.41951 -50.45759 34932 ft 449 kts 93°
2026-05-04 21:33 -3.42181 -50.39521 34932 ft 449 kts 93°
2026-05-04 21:34 -3.42405 -50.33279 34939 ft 449 kts 93°
2026-05-04 21:34 -3.42629 -50.27044 34939 ft 449 kts 93°
2026-05-04 21:35 -3.42859 -50.20793 34938 ft 449 kts 93°
2026-05-04 21:35 -3.43082 -50.14553 34934 ft 449 kts 93°
2026-05-04 21:36 -3.43308 -50.08303 34940 ft 449 kts 93°
2026-05-04 21:36 -3.43526 -50.02061 34940 ft 449 kts 93°
2026-05-04 21:37 -3.43745 -49.95850 34936 ft 449 kts 93°
2026-05-04 21:37 -3.43974 -49.89605 34930 ft 449 kts 93°
2026-05-04 21:38 -3.44203 -49.83352 34932 ft 450 kts 93°
2026-05-04 21:38 -3.44429 -49.77097 34928 ft 450 kts 93°
2026-05-04 21:39 -3.44647 -49.70837 34926 ft 450 kts 93°
2026-05-04 21:39 -3.44869 -49.64571 34929 ft 450 kts 93°
2026-05-04 21:40 -3.45095 -49.58306 34929 ft 451 kts 93°
2026-05-04 21:40 -3.45317 -49.52036 34927 ft 451 kts 94°
2026-05-04 21:41 -3.45543 -49.45768 34929 ft 451 kts 94°
2026-05-04 21:41 -3.45736 -49.40558 34929 ft 451 kts 94°
2026-05-04 21:42 -3.46004 -49.33225 34933 ft 451 kts 94°
2026-05-04 21:42 -3.46231 -49.26990 34931 ft 451 kts 94°
2026-05-04 21:43 -3.46421 -49.21736 34928 ft 451 kts 94°
2026-05-04 21:43 -3.46645 -49.15464 34935 ft 451 kts 93°
2026-05-04 21:44 -3.46866 -49.09185 34932 ft 451 kts 93°
2026-05-04 21:44 -3.47099 -49.02906 34929 ft 452 kts 93°
2026-05-04 21:45 -3.47330 -48.96656 34932 ft 452 kts 93°
2026-05-04 21:45 -3.47551 -48.90366 34933 ft 452 kts 93°
2026-05-04 21:46 -3.47777 -48.84059 34935 ft 453 kts 93°
2026-05-04 21:46 -3.48000 -48.77765 34937 ft 453 kts 93°
2026-05-04 21:47 -3.48220 -48.71460 34939 ft 453 kts 93°
2026-05-04 21:47 -3.48449 -48.65160 34938 ft 453 kts 93°
2026-05-04 21:48 -3.48680 -48.58859 34940 ft 453 kts 93°
2026-05-04 21:48 -3.48907 -48.52553 34936 ft 453 kts 93°
2026-05-04 21:49 -3.49129 -48.46245 34941 ft 453 kts 93°
2026-05-04 21:49 -3.49350 -48.39933 34948 ft 454 kts 93°
2026-05-04 21:50 -3.49559 -48.33667 34950 ft 454 kts 93°
2026-05-04 21:50 -3.49767 -48.27357 34949 ft 453 kts 93°
2026-05-04 21:51 -3.49976 -48.21055 34956 ft 453 kts 93°
2026-05-04 21:51 -3.50184 -48.14748 34955 ft 453 kts 93°
2026-05-04 21:52 -3.50392 -48.08436 34954 ft 454 kts 93°
2026-05-04 21:52 -3.50600 -48.02123 34945 ft 453 kts 93°
2026-05-04 21:53 -3.50814 -47.95811 34954 ft 453 kts 93°
2026-05-04 21:53 -3.51025 -47.89502 34956 ft 454 kts 93°
2026-05-04 21:54 -3.51214 -47.83187 34949 ft 453 kts 93°
2026-05-04 21:54 -3.51394 -47.76879 34949 ft 454 kts 92°
2026-05-04 21:55 -3.51577 -47.70559 34954 ft 454 kts 93°
2026-05-04 21:55 -3.51761 -47.64274 34955 ft 454 kts 93°
2026-05-04 21:56 -3.51949 -47.57950 34952 ft 454 kts 93°
2026-05-04 21:56 -3.52142 -47.51630 34949 ft 454 kts 92°
2026-05-04 21:57 -3.52322 -47.45304 34956 ft 455 kts 92°
2026-05-04 21:57 -3.52515 -47.38978 34954 ft 455 kts 93°
2026-05-04 21:58 -3.52762 -47.32653 34957 ft 455 kts 93°
2026-05-04 21:58 -3.53005 -47.26331 34954 ft 454 kts 93°
2026-05-04 21:59 -3.53233 -47.20010 34959 ft 454 kts 93°
2026-05-04 21:59 -3.53466 -47.13697 34953 ft 454 kts 93°
2026-05-04 22:00 -3.53697 -47.07381 34949 ft 454 kts 93°
2026-05-04 22:00 -3.53922 -47.01060 34955 ft 454 kts 93°
2026-05-04 22:01 -3.54145 -46.94734 34959 ft 455 kts 93°
2026-05-04 22:01 -3.54379 -46.88405 34954 ft 455 kts 93°
2026-05-04 22:02 -3.54612 -46.82069 34958 ft 455 kts 93°
2026-05-04 22:02 -3.54846 -46.75738 34957 ft 455 kts 93°
2026-05-04 22:03 -3.55063 -46.69448 34952 ft 455 kts 92°
2026-05-04 22:03 -3.55256 -46.63113 34959 ft 455 kts 92°
2026-05-04 22:04 -3.55451 -46.56772 34956 ft 456 kts 92°
2026-05-04 22:04 -3.55654 -46.50435 34959 ft 456 kts 92°
2026-05-04 22:05 -3.55865 -46.44082 34968 ft 456 kts 93°
2026-05-04 22:05 -3.56074 -46.37778 34963 ft 456 kts 93°
2026-05-04 22:06 -3.56283 -46.31433 34970 ft 456 kts 92°
2026-05-04 22:06 -3.56479 -46.25086 34971 ft 456 kts 92°
2026-05-04 22:07 -3.56680 -46.18742 34963 ft 456 kts 92°
2026-05-04 22:07 -3.56886 -46.12402 34965 ft 455 kts 92°
2026-05-04 22:08 -3.57083 -46.06068 34966 ft 455 kts 92°
2026-05-04 22:08 -3.57279 -45.99731 34970 ft 456 kts 92°
2026-05-04 22:09 -3.57479 -45.93379 34969 ft 456 kts 92°
2026-05-04 22:09 -3.57685 -45.87037 34964 ft 456 kts 92°
2026-05-04 22:10 -3.57891 -45.80734 34966 ft 456 kts 92°
2026-05-04 22:10 -3.58095 -45.74394 34960 ft 456 kts 92°
2026-05-04 22:11 -3.58294 -45.68054 34957 ft 456 kts 92°
2026-05-04 22:11 -3.58487 -45.61717 34955 ft 456 kts 92°
2026-05-04 22:12 -3.58678 -45.55365 34956 ft 455 kts 92°
2026-05-04 22:12 -3.58872 -45.49024 34953 ft 455 kts 92°
2026-05-04 22:13 -3.59078 -45.42683 34951 ft 455 kts 92°
2026-05-04 22:13 -3.59279 -45.36352 34951 ft 455 kts 92°
2026-05-04 22:14 -3.59477 -45.30012 34953 ft 455 kts 92°
2026-05-04 22:14 -3.59677 -45.23670 34951 ft 455 kts 92°
2026-05-04 22:15 -3.59868 -45.17373 34947 ft 456 kts 92°
2026-05-04 22:15 -3.60058 -45.11035 34944 ft 456 kts 92°
2026-05-04 22:16 -3.60254 -45.04690 34953 ft 456 kts 93°
2026-05-04 22:16 -3.60461 -44.98349 34953 ft 456 kts 93°
2026-05-04 22:17 -3.60670 -44.91999 34959 ft 456 kts 93°
2026-05-04 22:17 -3.60874 -44.85654 34959 ft 456 kts 93°
2026-05-04 22:18 -3.61074 -44.79313 34961 ft 456 kts 92°
2026-05-04 22:18 -3.61270 -44.73013 34960 ft 455 kts 93°
2026-05-04 22:19 -3.61479 -44.66676 34961 ft 455 kts 93°
2026-05-04 22:19 -3.61681 -44.60340 34962 ft 455 kts 92°
2026-05-04 22:20 -3.61872 -44.54014 34959 ft 455 kts 92°
2026-05-04 22:20 -3.62093 -44.47688 34956 ft 454 kts 93°
2026-05-04 22:21 -3.62399 -44.41414 34954 ft 454 kts 94°
2026-05-04 22:21 -3.62719 -44.35099 34951 ft 454 kts 94°
2026-05-04 22:22 -3.63022 -44.28778 34950 ft 455 kts 94°
2026-05-04 22:22 -3.63313 -44.22456 34950 ft 455 kts 93°
2026-05-04 22:23 -3.63529 -44.16123 34951 ft 455 kts 92°
2026-05-04 22:23 -3.63681 -44.09785 34952 ft 455 kts 92°
2026-05-04 22:24 -3.63845 -44.03441 34953 ft 456 kts 92°
2026-05-04 22:24 -3.64034 -43.97099 34958 ft 456 kts 92°
2026-05-04 22:25 -3.64227 -43.90754 34960 ft 455 kts 92°
2026-05-04 22:25 -3.64417 -43.84419 34961 ft 455 kts 92°
2026-05-04 22:26 -3.64606 -43.78080 34960 ft 455 kts 92°
2026-05-04 22:26 -3.64796 -43.71742 34959 ft 455 kts 92°
2026-05-04 22:27 -3.64979 -43.65409 34962 ft 455 kts 92°
2026-05-04 22:27 -3.65154 -43.59075 34962 ft 455 kts 92°
2026-05-04 22:28 -3.65327 -43.52792 34958 ft 455 kts 92°
2026-05-04 22:28 -3.65509 -43.46464 34957 ft 454 kts 92°
2026-05-04 22:29 -3.65700 -43.40144 34959 ft 454 kts 92°
2026-05-04 22:29 -3.65887 -43.33821 34958 ft 454 kts 92°
2026-05-04 22:30 -3.66068 -43.27497 34959 ft 454 kts 92°
2026-05-04 22:30 -3.66216 -43.22239 34960 ft 455 kts 92°
2026-05-04 22:31 -3.66407 -43.15911 34962 ft 455 kts 92°
2026-05-04 22:31 -3.66591 -43.09580 34962 ft 455 kts 92°
2026-05-04 22:32 -3.66759 -43.03250 34965 ft 455 kts 92°
2026-05-04 22:32 -3.66936 -42.96922 34956 ft 455 kts 92°
2026-05-04 22:33 -3.67120 -42.90594 34964 ft 454 kts 92°
2026-05-04 22:33 -3.67302 -42.84265 34969 ft 454 kts 92°
2026-05-04 22:34 -3.67479 -42.77988 34975 ft 454 kts 92°
2026-05-04 22:34 -3.67650 -42.71665 34975 ft 454 kts 92°
2026-05-04 22:35 -3.67824 -42.65340 34974 ft 454 kts 92°
2026-05-04 22:35 -3.68003 -42.59014 34969 ft 454 kts 93°
2026-05-04 22:36 -3.68185 -42.52696 34970 ft 454 kts 92°
2026-05-04 22:36 -3.68353 -42.46379 34970 ft 454 kts 93°
2026-05-04 22:37 -3.68527 -42.40101 34970 ft 454 kts 93°
2026-05-04 22:37 -3.68692 -42.33788 34973 ft 454 kts 91°
2026-05-04 22:38 -3.68741 -42.27473 34977 ft 454 kts 91°
2026-05-04 22:38 -3.68736 -42.21161 34977 ft 453 kts 91°
2026-05-04 22:39 -3.68751 -42.14856 34977 ft 452 kts 91°
2026-05-04 22:39 -3.68795 -42.08575 34986 ft 450 kts 91°
2026-05-04 22:40 -3.68925 -42.02314 34984 ft 449 kts 92°
2026-05-04 22:40 -3.69144 -41.96063 34964 ft 450 kts 93°
2026-05-04 22:41 -3.69362 -41.89792 34949 ft 452 kts 92°
2026-05-04 22:41 -3.69545 -41.83493 34948 ft 453 kts 92°
2026-05-04 22:42 -3.69722 -41.77179 34974 ft 454 kts 93°
2026-05-04 22:42 -3.69908 -41.70859 34961 ft 454 kts 93°
2026-05-04 22:43 -3.70094 -41.64531 34960 ft 455 kts 93°
2026-05-04 22:43 -3.70272 -41.58193 34967 ft 455 kts 93°
2026-05-04 22:44 -3.70452 -41.51865 34984 ft 455 kts 93°
2026-05-04 22:44 -3.70641 -41.45581 34992 ft 454 kts 93°
2026-05-04 22:45 -3.70825 -41.39273 34989 ft 453 kts 92°
2026-05-04 22:45 -3.71090 -41.29819 34999 ft 452 kts 93°
2026-05-04 22:46 -3.71270 -41.23531 35003 ft 452 kts 93°
2026-05-04 22:46 -3.71449 -41.17234 35006 ft 452 kts 93°
2026-05-04 22:47 -3.71628 -41.10939 35002 ft 452 kts 92°
2026-05-04 22:47 -3.71782 -41.04657 35002 ft 452 kts 92°
2026-05-04 22:48 -3.71919 -40.98360 34999 ft 452 kts 92°
2026-05-04 22:48 -3.72063 -40.92077 34998 ft 451 kts 93°
2026-05-04 22:49 -3.72209 -40.85784 34971 ft 453 kts 92°
2026-05-04 22:49 -3.72362 -40.79468 34967 ft 455 kts 92°
2026-05-04 22:50 -3.72515 -40.73164 34968 ft 456 kts 92°
2026-05-04 22:50 -3.72663 -40.66815 34974 ft 457 kts 92°
2026-05-04 22:51 -3.72810 -40.60457 34970 ft 457 kts 92°
2026-05-04 22:51 -3.72962 -40.54095 34759 ft 455 kts 92°
2026-05-04 22:52 -3.73039 -40.50935 34535 ft 453 kts 92°
2026-05-04 22:52 -3.73113 -40.47790 34307 ft 451 kts 92°
2026-05-04 22:52 -3.73184 -40.44668 33847 ft 447 kts 93°
2026-05-04 22:52 -3.73256 -40.41556 33288 ft 445 kts 93°
2026-05-04 22:53 -3.73327 -40.38464 32775 ft 442 kts 92°
2026-05-04 22:53 -3.73397 -40.35395 32250 ft 439 kts 93°
2026-05-04 22:53 -3.73467 -40.32349 31740 ft 437 kts 92°
2026-05-04 22:53 -3.73537 -40.29315 31230 ft 434 kts 93°
2026-05-04 22:54 -3.73605 -40.26303 30730 ft 432 kts 92°
2026-05-04 22:54 -3.73670 -40.23297 30228 ft 430 kts 92°
2026-05-04 22:54 -3.73735 -40.20316 29690 ft 427 kts 92°
2026-05-04 22:54 -3.73804 -40.17354 29204 ft 423 kts 92°
2026-05-04 22:55 -3.73872 -40.14429 28731 ft 418 kts 92°
2026-05-04 22:55 -3.73942 -40.11531 28262 ft 414 kts 92°
2026-05-04 22:55 -3.73999 -40.08669 27805 ft 410 kts 91°
2026-05-04 22:55 -3.73979 -40.05828 27346 ft 406 kts 89°
2026-05-04 22:56 -3.73900 -40.03054 26895 ft 402 kts 89°
2026-05-04 22:56 -3.73796 -40.00273 26442 ft 398 kts 88°
2026-05-04 22:56 -3.73689 -39.97512 25973 ft 396 kts 88°
2026-05-04 22:56 -3.73592 -39.94768 25516 ft 393 kts 88°
2026-05-04 22:57 -3.73507 -39.92041 25031 ft 391 kts 89°
2026-05-04 22:57 -3.73431 -39.89328 24548 ft 389 kts 89°
2026-05-04 22:57 -3.73360 -39.86620 24051 ft 388 kts 89°
2026-05-04 22:57 -3.73288 -39.83920 23554 ft 387 kts 88°
2026-05-04 22:58 -3.73216 -39.81233 22995 ft 386 kts 88°
2026-05-04 22:58 -3.73144 -39.78553 22496 ft 383 kts 88°
2026-05-04 22:58 -3.73071 -39.75898 22005 ft 380 kts 88°
2026-05-04 22:58 -3.72999 -39.73264 21535 ft 377 kts 88°
2026-05-04 22:59 -3.72928 -39.70649 21107 ft 374 kts 88°
2026-05-04 22:59 -3.72859 -39.68107 20562 ft 365 kts 88°
2026-05-04 22:59 -3.72790 -39.65612 20111 ft 352 kts 88°
2026-05-04 22:59 -3.72723 -39.63183 19670 ft 349 kts 88°
2026-05-04 23:00 -3.72655 -39.60757 19224 ft 349 kts 88°
2026-05-04 23:00 -3.72587 -39.58329 18783 ft 348 kts 88°
2026-05-04 23:00 -3.72519 -39.55906 18339 ft 349 kts 88°
2026-05-04 23:00 -3.72453 -39.53480 17852 ft 348 kts 88°
2026-05-04 23:01 -3.72388 -39.51063 17411 ft 346 kts 88°
2026-05-04 23:01 -3.72324 -39.48665 16981 ft 343 kts 88°
2026-05-04 23:01 -3.72262 -39.46278 16553 ft 342 kts 88°
2026-05-04 23:01 -3.72202 -39.43908 16132 ft 340 kts 88°
2026-05-04 23:02 -3.72139 -39.41544 15711 ft 339 kts 88°
2026-05-04 23:02 -3.72076 -39.39200 15286 ft 333 kts 88°
2026-05-04 23:02 -3.72013 -39.36919 14886 ft 321 kts 88°
2026-05-04 23:02 -3.71948 -39.34699 14497 ft 320 kts 88°
2026-05-04 23:03 -3.71882 -39.32472 14102 ft 320 kts 88°
2026-05-04 23:03 -3.71818 -39.30244 13693 ft 320 kts 88°
2026-05-04 23:03 -3.71757 -39.28013 13261 ft 320 kts 89°
2026-05-04 23:03 -3.71698 -39.25791 12852 ft 319 kts 89°
2026-05-04 23:04 -3.71639 -39.23580 12452 ft 317 kts 89°
2026-05-04 23:04 -3.71582 -39.21378 12046 ft 316 kts 89°
2026-05-04 23:04 -3.71524 -39.19208 11637 ft 315 kts 89°
2026-05-04 23:04 -3.71463 -39.17021 11274 ft 311 kts 88°
2026-05-04 23:05 -3.71403 -39.14925 11044 ft 294 kts 88°
2026-05-04 23:05 -3.71344 -39.12901 10501 ft 288 kts 88°
2026-05-04 23:05 -3.71286 -39.10916 10047 ft 281 kts 88°
2026-05-04 23:05 -3.71232 -39.08994 9635 ft 272 kts 89°
2026-05-04 23:06 -3.71180 -39.07137 9240 ft 262 kts 89°
2026-05-04 23:06 -3.71129 -39.05314 8868 ft 262 kts 89°
2026-05-04 23:06 -3.71079 -39.03499 8540 ft 260 kts 89°
2026-05-04 23:06 -3.71029 -39.01692 8163 ft 260 kts 89°
2026-05-04 23:07 -3.70978 -38.99881 7776 ft 260 kts 89°
2026-05-04 23:07 -3.70926 -38.98069 7381 ft 261 kts 89°
2026-05-04 23:07 -3.70874 -38.96253 6982 ft 261 kts 90°
2026-05-04 23:07 -3.70823 -38.94431 6581 ft 262 kts 90°
2026-05-04 23:08 -3.70773 -38.92603 6151 ft 263 kts 90°
2026-05-04 23:08 -3.70723 -38.90774 5727 ft 263 kts 91°
2026-05-04 23:08 -3.70673 -38.88943 5302 ft 263 kts 91°
2026-05-04 23:08 -3.70621 -38.87112 4874 ft 263 kts 91°
2026-05-04 23:09 -3.70567 -38.85274 4476 ft 262 kts 91°
2026-05-04 23:09 -3.70513 -38.83498 4363 ft 249 kts 91°
2026-05-04 23:09 -3.70463 -38.81809 4268 ft 235 kts 92°
2026-05-04 23:09 -3.70509 -38.80216 4253 ft 234 kts 101°
2026-05-04 23:10 -3.70825 -38.78635 4206 ft 226 kts 107°
2026-05-04 23:10 -3.71231 -38.77115 3840 ft 226 kts 108°
2026-05-04 23:10 -3.71634 -38.75631 3532 ft 215 kts 108°
2026-05-04 23:10 -3.72012 -38.74224 3288 ft 203 kts 108°
2026-05-04 23:11 -3.72363 -38.72913 3180 ft 184 kts 108°
2026-05-04 23:11 -3.72673 -38.71751 3120 ft 160 kts 109°
2026-05-04 23:11 -3.72948 -38.70728 3053 ft 147 kts 109°
2026-05-04 23:11 -3.73210 -38.69756 2974 ft 143 kts 109°
2026-05-04 23:12 -3.73467 -38.68798 2828 ft 142 kts 109°
2026-05-04 23:12 -3.73722 -38.67849 2668 ft 141 kts 109°
2026-05-04 23:12 -3.73977 -38.66898 2493 ft 141 kts 108°
2026-05-04 23:12 -3.74232 -38.65950 2319 ft 140 kts 108°
2026-05-04 23:13 -3.74483 -38.65012 2137 ft 139 kts 108°
2026-05-04 23:13 -3.74732 -38.64083 1963 ft 138 kts 107°
2026-05-04 23:13 -3.74978 -38.63164 1786 ft 138 kts 107°
2026-05-04 23:13 -3.75227 -38.62236 1608 ft 138 kts 107°
2026-05-04 23:14 -3.75477 -38.61303 1419 ft 139 kts 106°
2026-05-04 23:14 -3.75728 -38.60367 1244 ft 140 kts 107°
2026-05-04 23:14 -3.75979 -38.59429 1062 ft 139 kts 106°
2026-05-04 23:14 -3.76228 -38.58502 901 ft 137 kts 105°
2026-05-04 23:15 -3.76473 -38.57584 735 ft 137 kts 105°
2026-05-04 23:15 -3.76724 -38.56651 558 ft 138 kts 105°
2026-05-04 23:15 -3.76980 -38.55722 402 ft 137 kts 104°
2026-05-04 23:15 -3.77222 -38.54787 179 ft 139 kts 104°
2026-05-04 23:16 -3.77464 -38.53888 92 ft 120 kts 105°
2026-05-04 23:16 -3.77635 -38.53244 90 ft 71 kts 105°
2026-05-04 23:16 -3.77730 -38.52890 94 ft 40 kts 104°
2026-05-04 23:16 -3.77783 -38.52694 93 ft 18 kts 106°
2026-05-04 23:17 -3.77808 -38.52620 91 ft 16 kts 127°
2026-05-04 23:17 -3.77871 -38.52656 93 ft 10 kts 242°
2026-05-04 23:17 -3.77901 -38.52711 91 ft 8 kts 240°
2026-05-04 23:17 -3.77913 -38.52761 93 ft 7 kts 272°
2026-05-04 23:18 -3.77906 -38.52806 93 ft 6 kts 282°
2026-05-04 23:18 -3.77896 -38.52844 94 ft 5 kts 285°
2026-05-04 23:18 -3.77888 -38.52874 91 ft 4 kts 285°
2026-05-04 23:18 -3.77865 -38.52956 92 ft 13 kts 285°
2026-05-04 23:19 -3.77851 -38.53012 92 ft 12 kts 285°
2026-05-04 23:19 -3.77830 -38.53088 91 ft 11 kts 285°
2026-05-04 23:19 -3.77813 -38.53155 91 ft 9 kts 284°
2026-05-04 23:19 -3.77797 -38.53215 95 ft 8 kts 284°
2026-05-04 23:20 -3.77783 -38.53267 91 ft 7 kts 284°
2026-05-04 23:20 -3.77764 -38.53340 92 ft 15 kts 285°
2026-05-04 23:20 -3.77738 -38.53437 92 ft 14 kts 284°
2026-05-04 23:20 -3.77715 -38.53525 91 ft 12 kts 285°
2026-05-04 23:21 -3.77693 -38.53603 94 ft 11 kts 285°
2026-05-04 23:21 -3.77674 -38.53673 91 ft 10 kts 285°
2026-05-04 23:21 -3.77669 -38.53734 93 ft 8 kts 259°
2026-05-04 23:21 -3.77685 -38.53783 92 ft 7 kts 248°
2026-05-04 23:22 -3.77703 -38.53823 92 ft 6 kts 244°
2026-05-04 23:22 -3.77719 -38.53857 92 ft 5 kts 244°
2026-05-04 23:22 -3.77737 -38.53882 92 ft 4 kts 217°
2026-05-04 23:22 -3.77772 -38.53875 92 ft 10 kts 139°
2026-05-04 23:23 -3.77814 -38.53822 91 ft 10 kts 133°
2026-05-04 23:23 -3.77845 -38.53797 93 ft 1 kts 182°
2026-05-04 23:23 -3.77853 -38.53799 92 ft 1 kts 186°
2026-05-04 23:23 -3.77876 -38.53805 91 ft 4 kts 205°
2026-05-04 23:24 -3.77895 -38.53819 92 ft 2 kts 218°
2026-05-04 23:24 -3.77904 -38.53826 91 ft 1 kts 217°
2026-05-04 23:24 -3.77906 -38.53828 91 ft 0 kts 217°